Probability
0 0 0 0 0 0 0 0 0 0 0 0 0 0 1 1 1 1 2 1 0 0 0 2 5 7 8 10 12 12 11 10 9 5 2 1 0 0
0 0 0 0 0 0 0 0 0 0 0 0 0 0 0 0 0 1 1 1 0 0 0 1 2 4 4 5 5 6 5 4 4 2 1 0 0 0
0 0 0 0 0 0 0 0 0 0 0 0 0 1 0 0 0 0 0 0 0 0 0 0 0 1 1 1 0 0 0 0 0 0 0 0 0 0
0 0 0 0 0 0 0 0 0 0 0 0 0 1 1 0 0 0 0 0 0 0 0 0 0 0 0 0 0 0 0 0 0 0 0 0 0 0
0 0 0 0 0 0 0 0 0 0 0 0 0 0 1 1 0 0 0 0 0 0 0 0 0 0 0 0 0 0 0 0 0 0 0 0 0 0
0 0 0 0 0 0 0 0 0 0 0 0 0 0 1 1 0 0 0 0 0 0 0 0 0 0 0 0 0 0 0 0 0 0 0 0 0 0
0 0 0 0 0 0 0 0 0 0 0 0 0 0 0 0 0 0 0 0 1 0 0 0 0 0 0 0 0 0 0 0 0 0 0 0 0 0
0 0 0 0 0 0 0 0 0 0 0 0 0 0 0 0 0 0 0 0 0 0 0 0 0 0 0 0 0 0 0 0 0 0 0 0 0 0
0 0 0 0 0 0 0 0 0 0 0 0 0 0 0 0 0 0 0 0 0 0 0 0 0 0 0 0 0 0 0 0 0 0 0 0 0 0
0 0 0 0 0 0 0 0 0 0 0 0 0 0 0 0 0 0 0 0 0 0 0 0 0 0 0 0 0 0 0 0 0 0 0 0 0 0
0 0 0 0 0 0 0 0 0 0 0 0 0 0 0 0 0 0 0 0 0 0 0 0 0 0 0 0 0 0 0 0 0 0 0 0 0 0
0 0 0 0 0 0 0 0 0 0 0 0 0 0 0 0 0 0 0 0 0 0 0 0 0 0 0 0 0 0 0 0 0 0 0 0 0 0
0 0 0 0 0 0 0 0 0 0 0 0 0 0 0 0 0 0 0 0 0 0 0 0 0 0 0 0 0 0 0 0 0 0 0 0 0 0
0 0 0 0 0 0 0 0 0 0 0 0 0 0 0 0 0 0 0 0 0 0 0 0 0 0 0 0 0 0 0 0 0 0 0 0 0 0
0 0 0 0 0 0 0 0 0 0 0 0 0 0 0 0 0 0 0 0 0 0 0 0 0 0 0 0 0 0 0 0 0 0 0 0 0 0
0 0 0 0 0 0 0 0 0 0 0 0 0 0 0 0 0 0 0 0 0 0 0 0 0 0 0 0 0 0 0 0 0 0 0 0 0 0
0 0 0 0 0 0 0 0 0 0 0 0 0 0 0 0 0 0 0 0 0 0 0 0 0 0 0 0 0 0 0 0 0 0 0 0 0 0
0 0 0 0 0 0 0 0 0 0 0 0 0 0 0 0 0 0 0 0 0 0 1 1 1 0 0 0 0 0 0 0 0 0 0 0 0 0
0 0 0 0 0 0 0 0 0 0 0 0 0 0 0 0 0 0 0 0 0 0 1 1 1 0 0 0 0 0 0 0 0 0 0 0 0 0
0 0 0 0 0 0 0 0 0 0 0 0 0 0 0 0 0 0 0 0 0 0 0 0 0 0 0 0 0 0 0 0 0 0 0 0 0 0
0 0 0 0 0 0 0 0 0 0 0 0 0 0 0 0 0 0 0 0 0 0 0 0 0 0 0 0 0 0 0 0 0 0 0 0 0 0
0 0 0 0 0 0 0 0 0 0 0 0 0 0 0 0 0 0 0 0 0 0 0 0 1 0 0 0 0 0 0 0 0 0 0 0 0 0
0 0 0 0 0 0 0 0 0 0 0 0 0 0 0 0 0 0 0 0 0 0 0 0 1 0 0 0 0 0 0 0 0 0 0 0 0 0
Wind_Speed
5 5 4 4 4 4 4 4 4 6 5 5 3 2 2 2 4 4 4 7 10 11 13 14 15 16 18 20 21 21 21 21 20 20 20 20 20 21
5 5 5 4 4 4 4 4 4 5 6 4 4 4 3 4 4 4 5 8 11 12 13 14 15 16 17 18 19 20 21 21 21 20 20 19 19 19
6 6 6 6 4 4 4 4 5 4 6 5 4 4 4 5 4 4 4 5 6 12 14 14 15 15 16 18 19 20 20 21 20 20 20 20 19 19
6 7 7 6 6 5 5 5 5 5 6 7 6 5 6 6 5 5 5 6 5 9 13 14 14 15 16 17 18 19 19 20 20 20 20 20 20 20
7 7 7 7 6 5 5 5 5 6 5 5 6 5 5 5 5 6 6 5 5 6 9 11 13 14 15 15 16 17 18 19 20 20 20 20 19 19
6 7 7 7 7 6 6 6 6 6 6 6 6 6 5 5 5 4 4 4 4 4 5 5 8 12 14 15 16 17 18 19 19 20 20 20 19 19
6 7 8 10 10 8 7 5 5 4 5 5 6 6 5 4 4 3 4 4 4 4 3 4 4 5 7 11 14 15 16 18 19 20 20 20 19 18
7 7 9 10 12 14 14 12 10 7 6 6 6 6 6 5 4 5 4 3 3 2 3 4 4 5 5 5 10 13 15 16 18 19 19 19 19 18
8 8 10 11 9 6 9 13 14 16 14 9 9 9 8 7 6 6 5 5 5 4 2 4 3 4 3 4 9 12 13 14 16 17 18 18 18 17
10 10 10 9 11 8 7 7 7 9 11 11 11 11 10 7 6 5 6 6 6 5 4 4 3 2 2 1 5 9 11 12 14 15 16 17 17 16
10 11 10 10 11 11 8 7 7 7 11 14 14 14 15 13 8 4 5 6 6 5 3 3 2 1 1 1 2 5 8 11 12 14 15 16 16 15
8 9 12 13 12 10 8 7 8 7 7 8 8 10 11 12 14 10 7 7 7 5 4 3 3 2 2 1 1 2 4 6 10 12 14 15 17 11
8 6 5 6 9 11 10 7 8 6 5 6 7 7 7 7 8 9 9 9 8 7 3 3 3 3 2 1 1 1 3 3 4 6 11 16 17 12
8 7 4 2 4 8 8 9 9 7 6 7 8 8 7 7 7 8 10 11 10 9 6 4 3 4 3 3 2 1 2 3 4 4 6 11 11 11
8 10 8 7 7 8 13 14 10 7 8 9 9 8 7 7 6 5 7 8 9 9 8 8 6 5 4 4 4 3 3 2 4 5 6 7 6 8
9 10 12 14 13 12 11 10 9 9 9 9 8 7 6 6 6 5 5 5 6 6 7 8 7 7 5 4 4 5 4 5 5 6 6 5 6 7
3 5 7 8 8 8 9 8 8 8 10 9 8 7 6 6 6 5 5 4 5 5 5 5 5 4 5 4 5 5 5 4 6 6 7 6 5 6
3 8 9 9 9 8 8 7 7 8 8 8 8 8 7 6 6 5 5 6 6 6 6 5 5 4 2 2 4 6 6 5 6 7 6 6 6 6
6 9 10 9 9 8 7 7 7 7 7 7 8 8 7 7 6 6 5 6 6 6 5 6 7 7 7 6 4 6 7 7 7 6 6 4 6 7
9 10 10 9 8 8 7 6 6 6 5 6 7 7 7 7 6 6 6 7 6 6 6 6 8 9 9 7 5 4 8 9 8 8 6 4 4 6
9 8 8 8 7 6 6 6 6 6 6 6 6 7 7 7 7 7 6 8 8 7 7 7 8 10 5 5 5 4 5 7 8 7 8 7 5 5
9 7 6 6 6 6 6 6 6 6 7 6 6 6 7 7 8 8 7 7 7 7 8 6 7 8 6 7 7 7 7 5 5 8 7 4 7 9
7 6 6 5 6 5 5 6 7 6 6 6 6 6 7 7 7 7 7 7 7 7 7 6 7 7 7 7 7 6 9 9 6 5 4 9 3 2
Wind_Direction
274 278 272 279 284 282 283 275 278 288 288 295 297 272 233 216 194 221 245 245 235 230 228 227 224 218 215 212 210 209 208 208 208 208 208 209 210 213
261 262 269 271 281 293 293 288 277 273 281 288 286 275 271 271 224 229 245 251 241 234 229 225 224 221 216 213 210 209 208 208 207 207 207 208 208 210
266 265 259 260 266 276 284 287 285 282 281 285 287 293 285 275 260 245 253 243 239 233 229 224 221 220 218 215 212 211 210 209 209 209 209 209 208 209
266 265 264 264 255 256 264 273 278 280 278 280 283 281 276 272 259 246 252 253 242 235 226 223 220 217 215 214 214 212 212 211 211 210 210 209 209 210
266 265 262 261 260 256 259 265 273 279 284 283 283 275 271 269 269 260 251 252 247 239 223 221 220 218 215 212 213 213 213 212 211 211 210 209 208 209
265 266 264 260 257 254 256 254 260 269 273 275 275 274 267 264 258 257 258 247 243 237 225 218 220 219 218 213 212 213 213 213 211 210 208 207 207 208
277 273 268 263 258 251 255 256 267 274 279 282 281 282 276 274 272 270 264 262 247 222 217 217 214 218 216 218 216 214 212 212 210 208 206 204 204 206
279 276 275 268 257 240 238 241 243 251 260 268 278 283 293 307 317 316 309 298 284 241 217 230 214 220 215 211 209 209 210 210 208 205 203 200 200 201
268 270 274 274 280 259 241 239 242 244 241 247 260 267 277 288 308 314 309 302 287 288 262 249 228 230 218 212 200 202 206 206 204 201 198 195 194 194
260 259 260 264 270 270 268 257 247 245 239 234 239 248 256 261 266 278 287 288 277 260 232 245 228 222 204 195 197 199 202 202 200 196 191 187 186 185
258 257 254 253 253 248 248 254 258 260 260 253 235 236 242 246 246 261 272 275 276 270 228 211 216 200 197 208 196 197 198 198 194 190 184 179 175 172
261 256 254 251 248 232 231 243 253 259 269 280 269 254 249 248 238 230 239 252 262 266 230 196 191 180 201 199 192 185 185 192 188 184 178 170 163 161
269 272 274 267 239 226 226 241 251 264 278 278 275 265 251 243 237 225 219 225 237 245 232 197 202 193 186 176 194 184 172 162 169 175 174 167 167 166
264 273 282 287 239 231 229 242 250 255 261 263 262 260 256 248 239 231 221 216 220 230 230 217 217 201 182 175 182 170 159 156 156 157 160 161 166 164
256 267 274 258 246 241 240 241 242 243 247 252 254 254 252 253 249 244 234 223 221 225 222 216 215 207 202 189 168 165 158 160 157 152 155 161 159 153
251 263 261 252 242 249 253 238 231 236 239 246 249 253 252 253 251 245 244 227 222 223 217 210 206 199 204 196 175 172 167 164 162 157 148 148 152 157
303 275 270 264 250 240 237 236 230 225 230 238 247 253 253 250 248 244 240 234 224 221 212 200 199 194 195 189 183 179 166 157 160 155 152 150 156 161
258 263 264 263 262 258 250 240 233 232 232 232 235 241 246 247 245 237 231 229 228 225 212 192 179 173 176 221 194 174 169 162 159 161 155 151 159 163
235 253 256 258 259 259 256 248 243 236 227 228 232 234 236 241 243 239 230 228 227 227 215 191 186 189 197 202 196 187 169 160 159 162 167 155 160 164
234 245 251 253 253 254 256 254 251 246 232 228 231 232 230 234 238 237 231 229 228 227 217 198 194 198 202 192 171 176 177 165 165 166 157 124 101 104
249 244 245 252 256 258 257 251 249 248 239 231 232 233 230 229 234 233 230 232 230 226 218 208 202 192 180 157 156 155 161 171 167 162 154 143 137 142
256 261 259 256 256 256 255 252 250 248 245 238 235 232 228 226 230 231 228 227 226 224 220 207 183 180 185 187 179 162 151 140 111 106 98 110 158 167
258 265 268 268 264 260 255 252 252 251 246 243 241 236 229 225 226 227 227 227 227 222 214 199 187 184 191 189 178 163 158 154 147 133 72 22 53 125